Rockwall, TX

12:25 PM CDT on September 19, 2017 (GMT -0500)
Rockwall

Weather History for KF46 - November, 2013

Change the Weather History Date:

Monday, November 4, 2013

  Actual Average (KDFW) Record (KDFW)
Temperature  
Mean Temperature 56 °F -  
Max Temperature 59 °F 67 °F 88 °F (1987)
Min Temperature 52 °F 49 °F 25 °F (1991)
Degree Days  
Heating Degree Days 10    
Growing Degree Days 6 (Base 50)    
Moisture  
Dew Point 53 °F    
Average Humidity 88    
Maximum Humidity 100    
Minimum Humidity 65    
Precipitation  
Precipitation 0.68 in - - ()
Sea Level Pressure  
Sea Level Pressure 30.06 in    
Wind  
Wind Speed 8 mph (SE)    
Max Wind Speed 13 mph    
Max Gust Speed 20 mph    
Visibility 9 miles    
Events Rain    
Averages and records for this station are not official NWS values.
T = Trace of Precipitation, MM = Missing Value Source: NWS Daily Summary

Daily Weather History Graph

Daily Weather History Graph

Search for Another Location

Airport or City:

Trip Planner

Search our weather history database for the weather conditions in past years. The results will help you decide how hot, cold, wet, or windy it might be!

Date:

Astronomy

Nov. 04, 2013 Rise Set
Actual Time 6:46 AM CST 5:31 PM CST
Civil Twilight 6:20 AM CST 5:57 PM CST
Nautical Twilight 5:51 AM CST 6:26 PM CST
Astronomical Twilight 5:22 AM CST 6:55 PM CST
Moon 7:55 AM CST (11/4) 6:41 PM CST (11/4)
Length of Visible Light 11h 36m
Length of Day
10h 45m
New Moon, 2% of the Moon is Illuminated
Nov 4
New Moon
Nov 9
First Quarter
Nov 17
Full
Nov 25
Last Quarter
Dec 2
New

Hourly Weather History & Observations

Time (CST) Temp. Dew Point Humidity Pressure Visibility Wind Dir Wind Speed Gust Speed Precip Events Conditions
12:15 AM 57.2 °F 45.5 °F 65% 30.04 in 10.0 mi South 8.1 mph 19.6 mph N/A   Scattered Clouds
12:55 AM 56.5 °F 46.2 °F 68% 30.02 in 10.0 mi South 9.2 mph - N/A   Mostly Cloudy
1:15 AM 57.2 °F 45.5 °F 65% 30.04 in 10.0 mi South 9.2 mph - N/A   Scattered Clouds
1:35 AM 56.8 °F 45.5 °F 66% 30.04 in 10.0 mi SSW 9.2 mph - N/A   Scattered Clouds
1:55 AM 56.5 °F 45.7 °F 67% 30.06 in 10.0 mi SW 3.5 mph - N/A   Clear
2:15 AM 55.9 °F 46.0 °F 69% 30.05 in 10.0 mi SW 4.6 mph - N/A   Clear
2:35 AM 55.8 °F 46.0 °F 70% 30.05 in 10.0 mi South 6.9 mph - N/A   Clear
2:55 AM 55.4 °F 46.0 °F 71% 30.04 in 10.0 mi South 8.1 mph - N/A   Clear
3:15 AM 55.4 °F 46.0 °F 71% 30.02 in 10.0 mi SSE 9.2 mph - N/A   Clear
3:35 AM 55.0 °F 45.9 °F 71% 30.00 in 10.0 mi SSE 11.5 mph 16.1 mph N/A   Clear
3:55 AM 54.9 °F 45.7 °F 71% 30.02 in 10.0 mi South 6.9 mph - N/A   Clear
4:15 AM 54.9 °F 45.5 °F 71% 30.02 in 10.0 mi SSE 8.1 mph - N/A   Scattered Clouds
4:35 AM 54.9 °F 45.0 °F 69% 30.03 in 10.0 mi South 8.1 mph - N/A   Scattered Clouds
4:55 AM 54.9 °F 44.1 °F 67% 30.04 in 10.0 mi South 8.1 mph - N/A   Mostly Cloudy
5:15 AM 54.9 °F 44.6 °F 68% 30.02 in 10.0 mi SSE 9.2 mph - N/A   Scattered Clouds
5:35 AM 54.9 °F 45.5 °F 71% 30.01 in 10.0 mi SSE 11.5 mph - N/A   Scattered Clouds
5:55 AM 54.5 °F 46.6 °F 75% 30.03 in 10.0 mi South 8.1 mph - N/A Rain Rain
6:15 AM 53.2 °F 47.8 °F 82% 30.03 in 10.0 mi South 10.4 mph - N/A Rain Rain
6:35 AM 53.2 °F 47.7 °F 81% 30.04 in 10.0 mi SSE 6.9 mph - N/A Rain Rain
6:55 AM 53.2 °F 48.4 °F 84% 30.06 in 10.0 mi Calm Calm - N/A Rain Light Rain
7:15 AM 52.7 °F 49.3 °F 88% 30.05 in 10.0 mi SE 6.9 mph - 0.01 in Rain Rain
7:35 AM 52.7 °F 49.3 °F 88% 30.05 in 10.0 mi SSE 10.4 mph - 0.01 in Rain Light Rain
7:55 AM 52.5 °F 49.3 °F 89% 30.06 in 10.0 mi SSE 12.7 mph 16.1 mph 0.02 in Rain Light Rain
8:15 AM 52.3 °F 49.6 °F 91% 30.07 in 10.0 mi SSE 9.2 mph - N/A   Light Drizzle
8:35 AM 52.9 °F 49.6 °F 89% 30.08 in 10.0 mi SSE 8.1 mph - N/A   Overcast
8:55 AM 53.2 °F 50.2 °F 89% 30.09 in 10.0 mi SSE 10.4 mph - N/A   Overcast
9:15 AM 53.6 °F 50.5 °F 89% 30.10 in 10.0 mi SSE 8.1 mph - N/A   Overcast
9:35 AM 53.8 °F 51.3 °F 91% 30.09 in 10.0 mi SSE 10.4 mph 16.1 mph N/A   Overcast
9:55 AM 54.0 °F 52.0 °F 93% 30.09 in 10.0 mi SSE 10.4 mph 17.3 mph N/A Rain Rain
10:15 AM 54.5 °F 52.9 °F 94% 30.10 in 10.0 mi SSE 9.2 mph 16.1 mph 0.01 in   Drizzle
10:35 AM 55.4 °F 53.6 °F 94% 30.10 in 10.0 mi SSE 10.4 mph - 0.01 in Rain Rain
10:55 AM 56.3 °F 54.5 °F 94% 30.11 in 10.0 mi SE 5.8 mph - 0.02 in Rain Light Rain
11:15 AM 57.0 °F 54.9 °F 92% 30.10 in 10.0 mi SE 9.2 mph - N/A   Light Drizzle
11:35 AM 57.2 °F 54.7 °F 91% 30.10 in 10.0 mi SSE 8.1 mph 17.3 mph N/A   Light Drizzle
11:55 AM 57.2 °F 55.0 °F 92% 30.09 in 10.0 mi SSE 10.4 mph - N/A   Drizzle
12:15 PM 58.1 °F 55.9 °F 93% 30.08 in 10.0 mi SSE 11.5 mph - N/A   Drizzle
12:35 PM 57.9 °F 55.8 °F 92% 30.06 in 10.0 mi SSE 10.4 mph - N/A   Drizzle
12:55 PM 58.3 °F 56.3 °F 93% 30.06 in 10.0 mi SSE 6.9 mph - N/A   Light Drizzle
1:15 PM 58.5 °F 56.7 °F 94% 30.06 in 10.0 mi SSE 8.1 mph - N/A Rain Rain
1:35 PM 58.5 °F 56.7 °F 94% 30.06 in 10.0 mi SSE 9.2 mph - 0.01 in Rain Light Rain
1:55 PM 58.5 °F 57.2 °F 96% 30.04 in 10.0 mi SSE 9.2 mph - 0.01 in   Drizzle
2:15 PM 58.8 °F 57.4 °F 95% 30.04 in 10.0 mi SSE 5.8 mph - N/A Rain Rain
2:35 PM 59.0 °F 57.6 °F 95% 30.05 in 10.0 mi SSE 6.9 mph - N/A Rain Light Rain
2:55 PM 59.0 °F 57.4 °F 94% 30.04 in 10.0 mi SE 5.8 mph - N/A Rain Light Rain
3:15 PM 59.0 °F 57.6 °F 95% 30.05 in 10.0 mi SSE 8.1 mph - N/A Rain Rain
3:35 PM 58.6 °F 57.0 °F 94% 30.03 in 10.0 mi ESE 6.9 mph - N/A   Overcast
3:55 PM 58.6 °F 57.2 °F 95% 30.04 in 10.0 mi SE 6.9 mph - N/A   Overcast
4:15 PM 59.0 °F 57.2 °F 94% 30.04 in 10.0 mi SE 8.1 mph - N/A Rain Rain
4:35 PM 58.6 °F 57.4 °F 96% 30.05 in 10.0 mi SSE 4.6 mph - 0.01 in Rain Light Rain
4:55 PM 58.5 °F 57.4 °F 96% 30.06 in 10.0 mi SE 4.6 mph - 0.01 in Rain Rain
5:15 PM 58.5 °F 57.6 °F 97% 30.05 in 5.0 mi SE 4.6 mph - N/A   Heavy Drizzle
5:35 PM 58.5 °F 57.6 °F 97% 30.06 in 10.0 mi SE 5.8 mph - 0.01 in   Drizzle
5:55 PM 58.5 °F 57.7 °F 97% 30.06 in 7.0 mi ESE 4.6 mph - 0.02 in Rain Light Rain
6:15 PM 58.3 °F 57.7 °F 98% 30.07 in 7.0 mi ESE 5.8 mph - N/A   Light Drizzle
6:35 PM 58.3 °F 57.7 °F 98% 30.07 in 7.0 mi ESE 6.9 mph - N/A   Overcast
6:55 PM 58.6 °F 58.1 °F 98% 30.08 in 10.0 mi ESE 6.9 mph - 0.01 in Rain Light Rain
7:15 PM 58.6 °F 58.1 °F 98% 30.07 in 7.0 mi SE 6.9 mph - 0.01 in   Drizzle
7:35 PM 58.8 °F 58.3 °F 98% 30.08 in 7.0 mi ESE 9.2 mph - 0.02 in Rain Rain
7:55 PM 58.8 °F 58.5 °F 99% 30.08 in 5.0 mi ESE 5.8 mph - 0.04 in Rain Light Rain
8:15 PM 58.8 °F 58.5 °F 99% 30.09 in 5.0 mi ESE 5.8 mph - 0.03 in Rain Light Rain
8:35 PM 58.8 °F 58.6 °F 99% 30.09 in 5.0 mi ESE 5.8 mph - 0.07 in Rain Rain
8:55 PM 59.0 °F 59.0 °F 100% 30.09 in 5.0 mi East 5.8 mph - 0.11 in Rain Light Rain
9:15 PM 59.0 °F 59.0 °F 100% 30.09 in 5.0 mi East 5.8 mph - 0.03 in Rain Rain
9:35 PM 59.0 °F 59.0 °F 100% 30.09 in 5.0 mi ESE 6.9 mph - 0.07 in Rain Light Rain
9:55 PM 59.0 °F 59.0 °F 100% 30.09 in 7.0 mi ESE 6.9 mph - 0.10 in Rain Light Rain
10:15 PM 59.0 °F 59.0 °F 100% 30.09 in 5.0 mi ESE 4.6 mph - 0.04 in Rain Rain
10:35 PM 59.0 °F 58.6 °F 99% 30.09 in 4.0 mi ESE 6.9 mph - 0.12 in Rain Rain
10:55 PM 59.0 °F 59.0 °F 100% 30.09 in 4.0 mi ESE 5.8 mph - 0.17 in Rain Rain
11:15 PM 59.0 °F 59.0 °F 100% 30.09 in 4.0 mi ESE 8.1 mph - 0.07 in Rain Rain
11:35 PM 59.2 °F 59.0 °F 99% 30.09 in 4.0 mi ESE 9.2 mph - 0.13 in Rain Light Rain
11:55 PM 59.4 °F 59.2 °F 99% 30.07 in 4.0 mi ESE 11.5 mph - 0.17 in Rain Light Rain